Date String (YYYY-MM-DD hh:mm:ss) UTC,Instrument flags,absolute air pressure of the measurement (hPa),sample flow rate (lpm),inlet stack bypass flow (lpm),air temperature of the measurement (°C),ambient temperature measured by the external sensor (°C),aerosol sample conditioner tube jacket temperature (°C),OPC LED temperature (°C),internal box temperature (°C),relative humidity of the measurement (%),span deviation,mass concentration of particles derived from Lorenz-Mie calculation of OPC scattering (μg/m³),mass concentration of particles derived from Lorenz-Mie calculation of OPC scattering (μg/m³),mass concentration of particles derived from Lorenz-Mie calculation of OPC scattering (μg/m³)
DateTimeUTC,F1_M11,P_M11,Q1_M11,Q2_M11,T1_M11,T2_M11,T3_M11,T4_M11,T5_M11,U1_M11,ZSPAN_M11,X0_M11,X2_M11,X1_M11
2023-08-11 04:00:00,SystemResetWarning,0829.5,5.00,000.00,029.1,026.1,000.0,037.5,030.5,19.0,0000.0,0010.15,0004.71,0004.12
2023-08-11 04:01:00,SystemResetWarning,0829.6,5.00,000.00,029.1,026.5,000.0,037.5,030.6,19.1,0000.0,0009.68,0004.72,0004.13
2023-08-11 04:02:00,SystemResetWarning,0829.6,4.99,000.00,029.1,026.8,000.0,037.6,030.7,19.1,0000.0,0009.52,0004.70,0004.14
2023-08-11 04:03:00,SystemResetWarning,0829.6,4.99,000.00,029.1,027.1,000.0,037.6,030.7,19.1,0000.0,0009.43,0004.69,0004.15
2023-08-11 04:04:00,SystemResetWarning,0829.6,5.00,000.00,029.1,027.4,000.0,037.6,030.8,19.0,0000.0,0009.01,0004.68,0004.14
2023-08-11 04:05:00,SystemResetWarning,0829.6,5.01,000.00,029.1,027.6,000.0,037.6,030.9,19.0,0000.0,0009.00,0004.67,0004.13
2023-08-11 04:06:00,SystemResetWarning,0829.6,5.00,000.00,029.2,027.8,000.0,037.6,030.9,19.0,0000.0,0009.03,0004.68,0004.13
2023-08-11 04:07:00,SystemResetWarning,0829.6,4.99,000.00,029.2,027.9,000.0,037.7,031.0,18.9,0000.0,0008.93,0004.67,0004.13
2023-08-11 04:08:00,SystemResetWarning,0829.6,5.00,000.00,029.3,028.0,000.0,037.7,031.0,18.9,0000.0,0008.80,0004.65,0004.13
2023-08-11 04:09:00,SystemResetWarning,0829.6,5.00,000.00,029.3,028.1,000.0,037.7,031.0,18.9,0000.0,0008.64,0004.63,0004.12
2023-08-11 04:10:00,SystemResetWarning,0829.7,5.00,000.00,029.3,027.7,000.0,037.7,031.0,18.9,0000.0,0009.25,0004.59,0004.11
2023-08-11 04:11:00,SystemResetWarning,0829.6,5.01,000.00,029.3,025.9,000.0,037.6,030.8,18.9,0000.0,0008.65,0004.52,0004.10
2023-08-11 04:12:00,SystemResetWarning,0829.6,5.01,000.00,029.3,025.5,000.0,037.5,030.6,18.9,0000.0,0008.54,0004.52,0004.09
2023-08-11 04:13:00,SystemResetWarning,0829.6,5.00,000.00,029.2,025.7,000.0,037.5,030.5,19.1,0000.0,0008.51,0004.50,0004.07
2023-08-11 04:14:00,SystemResetWarning,0829.6,5.00,000.00,029.1,026.0,000.0,037.5,030.5,19.1,0000.0,0008.55,0004.48,0004.07
2023-08-11 04:15:00,SystemResetWarning,0829.7,5.00,000.00,029.1,026.4,000.0,037.6,030.6,19.2,0000.0,0008.96,0004.47,0004.06
2023-08-11 04:16:00,SystemResetWarning,0829.6,5.00,000.00,029.1,026.7,000.0,037.6,030.7,19.1,0000.0,0009.00,0004.47,0004.06
2023-08-11 04:17:00,SystemResetWarning,0829.6,4.99,000.00,029.1,027.0,000.0,037.6,030.7,19.2,0000.0,0009.06,0004.49,0004.05
2023-08-11 04:18:00,SystemResetWarning,0829.7,5.00,000.00,029.1,027.3,000.0,037.6,030.8,19.2,0000.0,0009.07,0004.51,0004.05
2023-08-11 04:19:00,SystemResetWarning,0829.6,5.01,000.00,029.2,027.5,000.0,037.7,030.9,19.2,0000.0,0009.06,0004.50,0004.05
2023-08-11 04:20:00,SystemResetWarning,0829.6,5.00,000.00,029.2,027.7,000.0,037.7,030.9,19.1,0000.0,0009.19,0004.50,0004.04
2023-08-11 04:21:00,SystemResetWarning,0829.6,5.00,000.00,029.2,027.9,000.0,037.7,031.0,19.1,0000.0,0009.00,0004.59,0004.06
2023-08-11 04:22:00,SystemResetWarning,0829.6,5.00,000.00,029.3,028.0,000.0,037.7,031.0,19.1,0000.0,0009.20,0004.63,0004.07
2023-08-11 04:23:00,SystemResetWarning,0829.6,5.00,000.00,029.3,028.1,000.0,037.7,031.0,19.0,0000.0,0009.30,0004.63,0004.07
2023-08-11 04:24:00,SystemResetWarning,0829.6,5.00,000.00,029.3,027.5,000.0,037.7,031.0,19.0,0000.0,0009.34,0004.63,0004.07
2023-08-11 04:25:00,SystemResetWarning,0829.5,5.00,000.00,029.3,025.7,000.0,037.6,030.7,19.1,0000.0,0009.36,0004.66,0004.07
2023-08-11 04:26:00,SystemResetWarning,0829.5,5.01,000.00,029.2,025.4,000.0,037.5,030.6,19.1,0000.0,0009.02,0004.67,0004.07
2023-08-11 04:27:00,SystemResetWarning,0829.4,4.99,000.00,029.1,025.7,000.0,037.5,030.4,19.2,0000.0,0008.64,0004.66,0004.07
2023-08-11 04:28:00,SystemResetWarning,0829.4,5.00,000.00,029.1,026.0,000.0,037.6,030.4,19.3,0000.0,0008.56,0004.66,0004.08
2023-08-11 04:29:00,SystemResetWarning,0829.4,5.00,000.00,029.1,026.4,000.0,037.6,030.6,19.2,0000.0,0008.71,0004.66,0004.08
2023-08-11 04:30:00,SystemResetWarning,0829.4,5.01,000.00,029.1,026.7,000.0,037.6,030.7,19.2,0000.0,0009.23,0004.68,0004.08
2023-08-11 04:31:00,SystemResetWarning,0829.4,5.00,000.00,029.1,027.0,000.0,037.6,030.7,19.2,0000.0,0009.31,0004.72,0004.09
2023-08-11 04:32:00,SystemResetWarning,0829.4,4.98,000.00,029.1,027.3,000.0,037.6,030.8,19.2,0000.0,0008.94,0004.66,0004.08
2023-08-11 04:33:00,SystemResetWarning,0829.5,5.01,000.00,029.1,027.5,000.0,037.6,030.8,19.1,0000.0,0008.51,0004.61,0004.08
2023-08-11 04:34:00,SystemResetWarning,0829.4,5.01,000.00,029.2,027.7,000.0,037.7,030.9,19.2,0000.0,0008.41,0004.59,0004.07
2023-08-11 04:35:00,SystemResetWarning,0829.4,5.01,000.00,029.2,027.8,000.0,037.7,030.9,19.1,0000.0,0008.78,0004.61,0004.07
2023-08-11 04:36:00,SystemResetWarning,0829.4,5.00,000.00,029.3,027.9,000.0,037.7,031.0,19.1,0000.0,0008.83,0004.60,0004.07
2023-08-11 04:37:00,SystemResetWarning,0829.5,5.00,000.00,029.3,028.0,000.0,037.7,031.0,19.0,0000.0,0008.92,0004.59,0004.06
2023-08-11 04:38:00,SystemResetWarning,0829.5,4.99,000.00,029.3,028.1,000.0,037.7,031.1,19.0,0000.0,0009.12,0004.61,0004.07
2023-08-11 04:39:00,SystemResetWarning,0829.5,5.01,000.00,029.4,028.2,000.0,037.8,031.1,18.9,0000.0,0009.33,0004.57,0004.06
2023-08-11 04:40:00,SystemResetWarning,0829.5,5.01,000.00,029.4,028.2,000.0,037.8,031.1,19.0,0000.0,0009.11,0004.52,0004.05
2023-08-11 04:41:00,SystemResetWarning,0829.5,4.99,000.00,029.4,026.6,000.0,037.7,030.9,19.0,0000.0,0008.77,0004.56,0004.06
2023-08-11 04:42:00,SystemResetWarning,0829.5,5.01,000.00,029.3,025.5,000.0,037.6,030.8,19.0,0000.0,0008.86,0004.56,0004.05
2023-08-11 04:43:00,SystemResetWarning,0829.4,5.02,000.00,029.3,025.6,000.0,037.6,030.6,19.0,0000.0,0008.86,0004.57,0004.05
2023-08-11 04:44:00,SystemResetWarning,0829.4,4.99,000.00,029.2,025.9,000.0,037.6,030.5,19.1,0000.0,0008.86,0004.59,0004.06
2023-08-11 04:45:00,SystemResetWarning,0829.4,5.00,000.00,029.2,026.3,000.0,037.6,030.6,19.1,0000.0,0008.81,0004.62,0004.07
2023-08-11 04:46:00,SystemResetWarning,0829.5,5.00,000.00,029.2,026.6,000.0,037.7,030.7,19.2,0000.0,0008.42,0004.60,0004.07
2023-08-11 04:47:00,SystemResetWarning,0829.5,5.00,000.00,029.2,026.9,000.0,037.7,030.8,19.2,0000.0,0008.42,0004.60,0004.07
2023-08-11 04:48:00,SystemResetWarning,0829.6,5.00,000.00,029.2,027.2,000.0,037.7,030.8,19.2,0000.0,0008.36,0004.63,0004.07
2023-08-11 04:49:00,SystemResetWarning,0829.6,5.00,000.00,029.2,027.4,000.0,037.7,030.9,19.2,0000.0,0008.23,0004.62,0004.07
2023-08-11 04:50:00,SystemResetWarning,0829.6,5.00,000.00,029.2,027.6,000.0,037.7,030.9,19.1,0000.0,0007.83,0004.61,0004.07
2023-08-11 04:51:00,SystemResetWarning,0829.6,4.99,000.00,029.3,027.8,000.0,037.7,031.0,19.0,0000.0,0007.91,0004.64,0004.07
2023-08-11 04:52:00,SystemResetWarning,0829.7,4.99,000.00,029.3,027.9,000.0,037.8,031.0,19.0,0000.0,0007.86,0004.60,0004.05
2023-08-11 04:53:00,SystemResetWarning,0829.7,5.00,000.00,029.3,028.1,000.0,037.8,031.1,19.0,0000.0,0007.82,0004.55,0004.05
2023-08-11 04:54:00,SystemResetWarning,0829.7,5.01,000.00,029.4,028.2,000.0,037.8,031.1,19.0,0000.0,0007.71,0004.53,0004.06
2023-08-11 04:55:00,SystemResetWarning,0829.7,5.01,000.00,029.4,028.2,000.0,037.8,031.1,18.9,0000.0,0007.77,0004.54,0004.07
2023-08-11 04:56:00,SystemResetWarning,0829.7,4.99,000.00,029.4,027.6,000.0,037.8,031.0,18.9,0000.0,0007.74,0004.54,0004.07
2023-08-11 04:57:00,SystemResetWarning,0829.7,5.00,000.00,029.4,025.8,000.0,037.7,030.8,18.9,0000.0,0007.69,0004.51,0004.07
2023-08-11 04:58:00,SystemResetWarning,0829.7,5.02,000.00,029.3,025.5,000.0,037.6,030.7,19.0,0000.0,0007.63,0004.49,0004.08
2023-08-11 04:59:00,SystemResetWarning,0829.6,4.99,000.00,029.2,025.8,000.0,037.6,030.5,19.2,0000.0,0007.64,0004.46,0004.07
